User: anonymous   Login
Location: Albany
(35.0000°S, 118.0000°E)
Time: 15:04:38
(UTC-04:00)
Language:

Cosmos 1758 Rocket - Orbit

View from above orbital plane
View from above orbital plane
View from above satellite
View from above satellite

Ground track
Ground track

The orbit data is extracted from the following two-line orbital elements,

1 16792U 86046B   15085.83781247  .00000654  00000-0  77413-4 0  9999
2 16792 082.4811 247.5839 0025869 090.9481 023.4437 14.82854057554337
Epoch (UTC): 26 March 2015 20:06:26
Eccentricity: 0.0025869
inclination: 82.4811°
perigee height: 602 km
apogee height: 638 km
right ascension of ascending node: 247.5839°
argument of perigee: 90.9481°
revolutions per day: 14.82854057
mean anomaly at epoch: 23.4437°
orbit number at epoch: 55433

The dashed part of the orbit path shows where the satellite is in the earth's shadow,  

DLR